STARLINK-34105 (63977 NORAD) Tracking and Keplerian Element Data

This shows tracking and keplerian element data for the satellite.

Feedback or suggestion? Click here.




ElementValue
Catalog63977
NameSTARLINK-34105
Epoch Orbit3512
Epoch Day354.16537949
Epoch Year2025
RAAN261.8986
Inclination43.0043
Eccentricity0.0002465
Argument of Perigee253.8251
Mean Anonmoly106.233
Mean Motion15.27608438
Decay Rate0.00018899
L11 63977U 25099AB 25354.16537949 .00018899 00000+0 69391-3 0 9995
L22 63977 43.0043 261.8986 0002465 253.8251 106.2330 15.27608438 35121



Live tracking and technical data element details for STARLINK-34105 (NORAD 63977). STARLINK-34105 can be tracked NOW for your location showing map with azimuth and elevation plus other details from your city location.







IsCatalogInMostPopularTable: catalog: 63977, numindb: 5
Update: records affected: 1



GetName: 63977 STARLINK-34105

Hit Count: updated at: Tue, 21 Apr 2026 20:43:08 GMT